sat.trackr.live / text

‹ back to catalog

STARLINK-31784

NORAD 59618 · 2024-080T

PAYLOAD ACTIVE UNKNOWN

§ Identity

Operator
Country
US
Launch date
2024-04-28
Launch site
AFETR
Launch vehicle
Mass (kg)
RCS (m²)

Purposes: comms

External: N2YO · Heavens-Above · Gunter

§ Orbital elements

Epoch: 2026-09-21T17:57:37.054656Z

Period
94.27 min
Inclination
43.0034°
Eccentricity
0.0000916
Mean motion
15.27577911 rev/d
Perigee alt
482.4 km
Apogee alt
483.7 km
Semi-major
6,861.2 km
B*
1.9784e-5
RAAN
14.4451°
Arg perigee
277.2071°
Mean anomaly
82.8677°
Rev number
13,447

§ Raw data

STARLINK-317841 59618U 24080T   26264.74834554  .00000282  00000+0  19784-4 0  99972 59618  43.0034  14.4451 0000916 277.2071  82.8677 15.27577911134478

JSON: /api/v1/satellites/59618 · /tle

For live sub-satellite position, see the globe view (requires WebGL).

§ Visibility from observer

Set your observer location to see the next 7 days of passes ≥ 10°. The values pass through the URL so the page stays shareable.

No JS? Fill the form by hand. The geolocation button needs JavaScript.